TimePDT,TemperatureF,Dew PointF,Humidity,Sea Level PressureIn,VisibilityMPH,Wind Direction,Wind SpeedMPH,Gust SpeedMPH,PrecipitationIn,Events,Conditions,WindDirDegrees,DateUTC
12:50 AM,65.7,58.6,78,29.51,15.0,SSW,18.4,-,N/A,,Partly Cloudy,200,2012-10-16 07:50:00
1:50 AM,65.1,57.0,75,29.50,15.0,East,3.5,-,N/A,,Partly Cloudy,100,2012-10-16 08:50:00
2:50 AM,65.5,56.7,73,29.50,15.0,SW,21.9,-,N/A,,Partly Cloudy,220,2012-10-16 09:50:00
3:50 AM,63.5,54.0,71,29.50,15.0,SW,18.4,-,N/A,,Partly Cloudy,220,2012-10-16 10:50:00
4:50 AM,60.6,43.3,53,29.54,15.0,WSW,26.5,39.1,N/A,,Clear,250,2012-10-16 11:50:00
5:50 AM,58.6,43.5,57,29.58,15.0,West,19.6,32.2,N/A,,Clear,260,2012-10-16 12:50:00
6:50 AM,56.3,38.8,52,29.67,15.0,WSW,21.9,29.9,N/A,,Clear,250,2012-10-16 13:50:00
7:50 AM,55.2,37.2,51,29.71,15.0,West,24.2,38.0,N/A,,Partly Cloudy,270,2012-10-16 14:50:00
8:50 AM,57.7,32.9,39,29.75,15.0,West,36.8,48.3,N/A,,Clear,260,2012-10-16 15:50:00
9:50 AM,58.5,32.0,37,29.82,15.0,West,32.2,41.4,N/A,,Partly Cloudy,260,2012-10-16 16:50:00
10:50 AM,57.7,37.2,46,29.91,15.0,NW,21.9,28.8,N/A,,Partly Cloudy,320,2012-10-16 17:50:00
11:50 AM,59.2,37.6,45,29.94,15.0,NW,18.4,25.3,N/A,,Partly Cloudy,310,2012-10-16 18:50:00
12:50 PM,63.0,34.5,35,29.97,15.0,NW,17.3,-,N/A,,Partly Cloudy,310,2012-10-16 19:50:00
1:50 PM,63.1,35.1,35,29.99,15.0,WNW,13.8,-,N/A,,Partly Cloudy,290,2012-10-16 20:50:00
2:50 PM,62.6,34.9,36,30.00,15.0,NW,15.0,21.9,N/A,,Partly Cloudy,320,2012-10-16 21:50:00
3:50 PM,63.1,33.3,33,30.02,15.0,NW,17.3,23.0,N/A,,Partly Cloudy,310,2012-10-16 22:50:00
4:50 PM,62.1,35.4,37,30.02,15.0,NW,11.5,-,N/A,,Partly Cloudy,320,2012-10-16 23:50:00
5:50 PM,59.2,33.6,38,30.05,15.0,West,11.5,-,N/A,,Partly Cloudy,270,2012-10-17 00:50:00
6:50 PM,53.1,32.4,45,30.09,15.0,West,11.5,-,N/A,,Partly Cloudy,270,2012-10-17 01:50:00
10:50 PM,48.7,34.2,57,30.13,15.0,WSW,10.4,-,N/A,,Clear,240,2012-10-17 05:50:00
11:50 PM,46.2,33.1,60,30.14,15.0,WSW,9.2,-,N/A,,Clear,250,2012-10-17 06:50:00